Regional Weather Roundup
Issued by NWS Pendleton, OR

Home | Current Version | Previous Version | Text Only | Print | Product List | Glossary On
Versions: 1 2 3 4 5 6 7 8 9 10 11 12 13 14 15 16 17 18 19 20 21 22 23 24 25 26 27 28 29 30 31 32 33 34 35 36 37 38 39 40 41 42 43 44 45 46 47 48 49 50
066
ASUS46 KPDT 082125
RWRPDT
PENDLETON REGIONAL WEATHER ROUNDUP
NATIONAL WEATHER SERVICE PENDLETON OREGON
100 PM PST MON FEB 8 2016

NOTE: FAIR INDICATES FEW OR NO CLOUDS BELOW 12,000 FEET WITH NO
SIGNIFICANT WEATHER AND/OR OBSTRUCTIONS TO VISIBILITY.

# INDICATES UNOFFICIAL STATION AND DATA

WAZ520-082210-
EAST SLOPES OF WASHINGTON CASCADES

CITY            SKY/WX      TMP DP  RH  WIND    PRES   REMARKS
#BUMPING DAM    N/A         35  N/A N/A CALM    N/A
#CLE ELUM HS    N/A         43  30  60  SE3     30.48F
#CLE ELUM 2NW   N/A         43  29  57  SE3     N/A
#CLE ELUM LAKE  N/A         44  32  62  W2      30.60F
#CLIFFDEL 2NW   N/A         51  34  52  SW1     N/A
#GLENWOOD       N/A         45  39  79  CALM    30.60F
#MANASTASH CYN  N/A         42  29  60  W3      30.47F
#NELSON         N/A         N/A N/A N/A CALM    30.52F
#NELSON 3SW     N/A         36  32  85  CALM    30.84F
#NILE           N/A         44  34  68  E1      29.86F
#RONALD 2NW     N/A         41  N/A N/A S1      30.35F
#SNOWDEN        N/A         53  22  29  E2      N/A
#TEANAWAY 4NE   N/A         43  34  70  CALM    N/A
#TROUT LAKE 1NE N/A         49  37  63  CALM    30.59F
#TROUT LAKE 1E  N/A         46  38  73  CALM    30.47F
$$

WAZ521-082210-
SIMCOE HIGHLANDS

CITY            SKY/WX      TMP DP  RH  WIND    PRES   REMARKS
#BICKLETON HS   N/A         46  29  51  E3      N/A
#CENTERVILLE 1SWN/A         44  36  73  E10     30.57F
#GOLDENDALE     N/A         48  38  68  S2      N/A
#GOLDENDALE 1NE N/A         50  28  42  E3      N/A
#GOODNOE HILLS  N/A         48  35  60  E8      30.45F
#LYLE 6NE       N/A         45  39  79  CALM    30.56F
$$

WAZ026-082210-
KITTITAS VALLEY

CITY            SKY/WX      TMP DP  RH  WIND    PRES   REMARKS
ELLENSBURG AP   PTCLDY      39  27  62  CALM    30.59F
#ELLENSBURG CWU N/A         39  30  70  CALM    30.62F
#ELLENSBURG 3NE N/A         34  29  82  CALM    30.55F
#ELLENSBURG     N/A         45  32  60  CALM    N/A
#ELLENSBURG 1E  N/A         40  N/A N/A CALM    N/A
#KITTITAS 4N    N/A         36  30  79  CALM    30.58F
#KITTITAS 3S    N/A         32  29  89  CALM    30.68F
#THORP 6N       N/A         37  32  82  SE5     30.66F
$$

WAZ027-082210-
YAKIMA VALLEY

CITY            SKY/WX      TMP DP  RH  WIND    PRES   REMARKS
YAKIMA AIRPORT  PTCLDY      51  31  46  W6      30.59F
YAKIMA-VAGABOND SUNNY       47  32  56  W1      30.56F
#DONALD 2NE     N/A         57  12  16  SW1     29.41F
#GRANDVIEW      N/A         46  34  63  CALM    30.64F
#MABTON         N/A         47  37  68  W1      30.60F
#MOXEE 2E       N/A         46  18  32  S5      30.48F
#NACHES 2SW     N/A         50  34  54  NE1     30.58F
#OUTLOOK DOT    N/A         N/A N/A N/A CALM    N/A
#SELAH 8E       N/A         49  34  56  NW5     N/A
#TERRACE HTS    N/A         53  39  59  CALM    30.60F
#TOPPENISH      N/A         47  36  65  CALM    30.54F
#WEST VALLEY    N/A         48  34  58  CALM    30.61F
#W YAKIMA       N/A         48  34  58  NW1     30.61F
#WHITE SWAN 5E  N/A         48  36  63  NE2     30.63F
#WILEY CITY 3W  N/A         46  31  56  CALM    30.54F
$$

WAZ028-082210-
LOWER COLUMBIA BASIN...WASHINGTON

CITY            SKY/WX      TMP DP  RH  WIND    PRES   REMARKS
HANFORD         MOSUNNY     50  33  52  N6      30.63F
PASCO           SUNNY       48  34  58  N5      30.62F
PROSSER AWOS    N/A         48  34  58  S3      30.62F
RICHLAND AWOS   SUNNY       49  35  58  N5      30.61F
#BENTON CITY    N/A         47  36  65  SE2     30.54F
#CONNELL 5N     N/A         47  40  76  NW6     30.62F
#ELTOPIA 6NW    N/A         48  38  68  CALM    29.54F
#KAHLOTUS       N/A         46  39  76  NW6     30.61F
#KENNEWICK 3S   N/A         47  35  63  N1      30.63F
#PATERSON       N/A         46  37  71  S1      30.60F
#PROSSER        N/A         47  33  58  CALM    30.62F
#SAGEMOOR 2W    N/A         48  39  71  N1      30.47F
#TOUCHET 2S     N/A         45  38  76  CALM    30.63F
#WEST PASCO     N/A         48  38  68  CALM    30.66F
$$

WAZ029-082210-
FOOTHILLS OF THE BLUES...WASHINGTON

CITY            SKY/WX      TMP DP  RH  WIND    PRES   REMARKS
WALLA WALLA AP  SUNNY       43  35  73  CALM    30.59F
#CLYDE 6NW      N/A         46  37  71  SW1     30.61F
#DAYTON SCHOOL  N/A         49  34  56  SW2     30.56F
#LOWDEN 2SE     N/A         45  39  79  CALM    30.57F
#PLEASANT VIEW 1N/A         47  40  76  CALM    30.64F
#PRESCOTT       N/A         48  40  74  CALM    30.62F
#WHITMAN COLLEGEN/A         44  37  76  SW2     30.66F
#WAITSBURG 5S   N/A         43  38  82  W2      30.71F
#WAITSBURG 8N   N/A         53  19  26  S2      30.41F
#WALLA WALLA U  N/A         44  38  79  CALM    30.63F
#WHITMAN MISSIONN/A         42  38  86  CALM    30.65F
$$

WAZ030-082210-
BLUE MOUNTAINS...WASHINGTON

CITY            SKY/WX      TMP DP  RH  WIND    PRES   REMARKS
#DIXIE 5SE      N/A         44  39  82  NE3     30.47F
#SKI BLUEWOOD   N/A         41  39  93  SW5     30.52F
$$

ORZ009-041-WAZ024-082210-
COLUMBIA RIVER GORGE

CITY            SKY/WX      TMP DP  RH  WIND    PRES   REMARKS
HOOD RIVER AP   SUNNY       50  36  58  S3      30.57F
THE DALLES AP   SUNNY       50  36  58  CALM    30.59F
#ARLINGTON AIRPON/A         47  38  71  E3      30.61F
#ARLINGTON HS   N/A         49  35  58  E1      30.52F
#LYLE           N/A         50  40  68  S8      30.60F
#MARYHILL 2W    N/A         50  38  63  CALM    N/A
#MOSIER 1S      N/A         50  28  42  E8      30.55F
#MURDOCK        N/A         49  40  71  SW3     30.62F

$$

ORZ510-082210-
NORTH CENTRAL OREGON

CITY            SKY/WX      TMP DP  RH  WIND    PRES   REMARKS
#CHENOWITH 1W   N/A         45  37  73  E7      N/A
#COW CYN RST AREN/A         54  38  55  NE3     N/A
#DUFUR 9E       N/A         44  36  73  E7      30.62F
#GRASS VALLEY 1SN/A         48  39  71  NE5     30.59F
#MAUPIN SCHOOL  N/A         49  39  68  N1      30.56F
#MORO SCHOOL    N/A         47  39  74  NE2     30.53F
#SHANIKO 4NW    N/A         47  40  76  N6      30.51F
#TYGH VALLEY 2NEN/A         50  40  68  CALM    30.56F
#WAPANITIA AIRPON/A         47  40  76  CALM    30.60F
#WASCO 5NE      N/A         46  37  71  E6      30.61F
$$

ORZ511-082210-
CENTRAL OREGON

CITY            SKY/WX      TMP DP  RH  WIND    PRES   REMARKS
BEND AIRPORT    SUNNY       64  36  35  E10     30.45F
MADRAS AIRPORT  SUNNY       50  37  61  N5      30.53F
PRINEVILLE AP   SUNNY       61  37  41  SE8     30.48F
REDMOND AIRPORT SUNNY       64  37  37  NE5     30.47F
#ASHWOOD SCHOOL N/A         57  41  55  CALM    30.41F
#BEND 6E        N/A         63  31  30  CALM    30.39F
#BEND 1SW       N/A         58  38  47  W1      N/A
#BEND-KIM LN    N/A         62  41  46  E1      30.44F
#LAKE BILLY CHINN/A         52  N/A N/A NE5     30.52F
#MADRAS         N/A         50  39  66  N5      N/A
#POWELL BUTTE 3EN/A         58  36  44  E8      N/A
#PRINEVILLE 3N  N/A         63  40  43  E13     30.48F
#WARM SPRINGS   N/A         53  42  66  E1      30.48F

$$


ORZ509-082210-
EAST SLOPES OF OREGON CASCADES

CITY            SKY/WX      TMP DP  RH  WIND    PRES   REMARKS
SISTERS AWOS    N/A         54  39  57  CALM    30.41F
#BLACK BUTTE RNCN/A         53  42  66  CALM    30.53F
#CAMP SHERMAN   N/A         59  38  45  CALM    30.57F
#LA PINE 4NW    N/A         55  36  49  CALM    30.59F
#SISTERS AIRPOR N/A         56  46  69  CALM    30.17S
#SISTERS ODOT   N/A         55  N/A N/A E1      N/A
#SISTERS 3N     N/A         57  40  53  N3      30.44F
#SUNRIVER       N/A         55  37  51  SE1     30.56F
#SUTTLE LK DOT  N/A         47  38  71  E13     N/A    WCI 41
#TUMALO 3W      N/A         57  40  53  CALM    30.36F
#WANOGA BUTTE D N/A         56  22  26  W1      N/A

$$

ORZ044-082210-
LOWER COLUMBIA BASIN...OREGON

CITY            SKY/WX      TMP DP  RH  WIND    PRES   REMARKS
HERMISTON       SUNNY       49  35  58  VRB3    30.59F
#BOARDMAN SCHOOLN/A         45  37  73  N3      30.60F
#BOARDMAN 8SW   N/A         49  37  63  N5      30.60F
#ECHO 8SW       N/A         50  34  54  CALM    30.58F
#I-84 EX 198 DOTN/A         49  34  56  N1      N/A
#IONE SCHOOL    N/A         48  32  54  CALM    30.51F
#IRRIGON 4NW    N/A         46  39  76  W3      N/A
#UMATILLA SCHOOLN/A         47  40  76  CALM    30.59F
#UMATILLA       N/A         49  35  58  NE1     30.55F
$$

ORZ507-082210-
NORTHERN FOOTHILLS OF THE BLUES

CITY            SKY/WX      TMP DP  RH  WIND    PRES   REMARKS
PENDLETON AIRPT SUNNY       48  36  63  NE7     30.56F
#ADAMS 3WNW     N/A         47  38  71  NE1     30.60F
#ATHENA         N/A         45  38  76  N2      30.63F
#CAYUSE         N/A         46  38  73  CALM    30.60F
#HELIX SCHOOL   N/A         43  37  79  N5      30.60F
#HELIX 3N       N/A         41  36  82  N8      30.49F
#HOLDMAN 5SE    N/A         43  40  89  CALM    30.33S
#HOLDMAN 6E     N/A         43  38  82  S5      30.41F
#M-F GROVE ELEM N/A         43  33  67  CALM    30.56F
#M-FREEWATER 5SEN/A         44  37  76  CALM    30.55F
#PDT AQUATIC CTRN/A         50  40  68  CALM    30.55F
#PDT SUNRIDGE   N/A         48  38  68  CALM    30.57F
#PENDLETON 7NW  N/A         51  38  61  N2      29.34S
#PILOT ROCK     N/A         46  32  58  N1      30.54F
#TUTUILLA       N/A         48  39  71  CALM    30.59F
#UMAPINE 2E     N/A         45  39  79  NW1     30.57F
#WESTON SCHOOL  N/A         44  35  70  NE2     30.50F

$$

ORZ508-082210-
SOUTHERN FOOTHILLS OF THE BLUES

CITY            SKY/WX      TMP DP  RH  WIND    PRES   REMARKS
LEXINGTON       SUNNY       48  36  63  N10     30.57F
#CONDON SCHOOL  N/A         47  39  74  N6      30.42F
#CONDON 5W      N/A         48  36  63  E2      30.47F
#FOSSIL SCHOOL  N/A         53  41  64  W6      30.41F
#HEPPNER EOC    N/A         49  38  66  NW1     30.52F
#HEPPNER 4NE    N/A         46  37  71  NE2     30.58F
#LEXINGTON 2SE  N/A         50  37  61  N7      30.52F
#MIKKALO        N/A         49  35  58  E6      30.63F
#OLEX 4N        N/A         46  37  71  E7      30.53F
#RUGGS 5NE      N/A         53  36  52  N3      30.68F
#RUGGS 2SW      N/A         46  38  73  NE3     30.60F

$$

ORZ502-503-082210-
BLUE MOUNTAINS

CITY            SKY/WX      TMP DP  RH  WIND    PRES   REMARKS
MEACHAM         SUNNY       50  32  50  CALM    30.53F
#HEPPNER 15SE   N/A         36  28  72  N5      30.30S
#LONG CREEK HS  N/A         56  40  55  CALM    N/A
#PIKES PEAK     N/A         45  32  60  NE6     27.99S
#TOLLGATE       N/A         50  39  66  CALM    30.34F
#TROY SCHOOL    N/A         49  39  68  NW3     30.46F
#UKIAH          N/A         45  37  73  W1      30.54F
#WESTON 4E      N/A         51  39  63  CALM    30.52F
$$

ORZ505-082210-
JOHN DAY BASIN

CITY            SKY/WX      TMP DP  RH  WIND    PRES   REMARKS
JOHN DAY        SUNNY       62  36  38  E6      30.52F
#DAYVILLE SCHOOLN/A         58  34  40  E5      30.44F
#MITCHELL       N/A         54  42  64  W1      30.62F
#MITCHELL 8NW   N/A         53  37  54  CALM    30.69F
#MONUMENT HS    N/A         54  35  48  CALM    30.44F
#MT. VERNON 5SE N/A         58  33  39  E6      30.48F
#SPRAY SCHOOL   N/A         59  N/A N/A CALM    N/A
#WINLOCK        N/A         60  39  46  N6      30.45F
$$

ORZ506-082210-
OCHOCO AND JOHN DAY HIGHLANDS

CITY            SKY/WX      TMP DP  RH  WIND    PRES   REMARKS
#BUCK CREEK DOT N/A         44  44  100 E12     N/A    WCI 38
#HORSE RIDGE DO N/A         59  32  36  E14     N/A
#KEYES SMT DOT  N/A         55  36  49  NE6     N/A
#PAULINA SCHOOL N/A         52  36  54  CALM    30.47F
#PINE MTN OBS   N/A         50  29  44  SE13    N/A
#PRAIRIE CITY   N/A         61  39  44  CALM    30.49F
#SENECA         N/A         31  N/A N/A CALM    N/A
#SENECA 9NW     N/A         44  33  65  CALM    30.71F
$$

ORZ049-082210-
GRANDE RONDE VALLEY

CITY            SKY/WX      TMP DP  RH  WIND    PRES   REMARKS
LA GRANDE       SUNNY       52  32  46  S13     30.56F
#COVE           N/A         49  40  71  SW8     30.58F
#COVE SCHOOL    N/A         49  38  66  CALM    30.55F
#COVE 6NW       N/A         48  38  68  SE7     30.48F
#ELGIN 3N       N/A         50  34  54  W6      30.50F
#ELGIN 1E       N/A         49  36  61  CALM    N/A
#IMBLER SCHOOL  N/A         48  36  63  SE10    30.50F
#ISLAND CITY 4N N/A         60  51  72  CALM    30.37F
#UNION 1S       N/A         45  35  68  SE20G30 30.57F WCI 37
$$

ORZ050-082210-
WALLOWA COUNTY

CITY            SKY/WX      TMP DP  RH  WIND    PRES   REMARKS
JOSEPH AIRPORT  SUNNY       41  30  65  N3      30.57F
#ENTERPRISE AP  N/A         41  31  67  CALM    30.45F
#ENTERPRISE HS  N/A         42  33  70  CALM    30.50F
#IMNAHA SCHOOL  N/A         52  33  48  N10     30.50F
#JOSEPH 3N      N/A         39  30  70  NW1     30.53F
#JOSEPH 3W      N/A         41  28  59  CALM    30.34F
#LOSTINE        N/A         43  31  62  CALM    30.52F
#MT HOWARD 8000 N/A         49  29  46  W2      30.63F
#PROMISE 1S     N/A         48  34  58  CALM    30.72F
#WALLOWA SCHOOL N/A         37  28  70  CALM    30.52F



$$



USA.gov is the U.S. government's official web portal to all federal, state and local government web resources and services.